Puerto Barrios, Guatemala

3:57 PM CST on April 21, 2018 (GMT -0600)
Puerto Barrios

Weather History for MGPB - November, 2012

Change the Weather History Date:

Thursday, November 1, 2012

  Actual Average Record
Temperature  
Mean Temperature 76 °F -  
Max Temperature 83 °F 81 °F 95 °F (2015)
Min Temperature 68 °F 69 °F 68 °F (2012)
Cooling Degree Days 10    
Growing Degree Days 26 (Base 50)    
Moisture  
Dew Point 71 °F    
Average Humidity 89    
Maximum Humidity 100    
Minimum Humidity 69    
Precipitation  
Precipitation 0.01 in - - ()
Sea Level Pressure  
Sea Level Pressure 29.99 in    
Wind  
Wind Speed 2 mph ()    
Max Wind Speed 9 mph    
Max Gust Speed -    
Visibility 6.1 miles    
Events Rain    
Averages and records for this station are not official NWS values.
T = Trace of Precipitation, MM = Missing Value Source: Averaged Metar Reports

Daily Weather History Graph

Daily Weather History Graph

Search for Another Location

Airport or City:

Astronomy

Nov. 01, 2012 Rise Set
Actual Time 5:51 AM CST 5:24 PM CST
Civil Twilight 5:29 AM CST 5:46 PM CST
Nautical Twilight 5:03 AM CST 6:12 PM CST
Astronomical Twilight 4:38 AM CST 6:37 PM CST
Moon 7:39 PM CST (11/1) 8:05 AM CST (11/1)
Length of Visible Light 12h 17m
Length of Day
11h 33m
Waning Gibbous, 92% of the Moon is Illuminated
Nov 1
Waning Gibbous
Nov 6
Last Quarter
Nov 13
New
Nov 20
First Quarter
Nov 28
Full

Hourly Weather History & Observations

Time (CST) Temp. Heat Index Dew Point Humidity Pressure Visibility Wind Dir Wind Speed Gust Speed Precip Events Conditions
12:00 AM 69.8 °F - 69.8 °F 100% 30.01 in - Calm Calm - N/A   Clear
1:00 AM 68.0 °F - 68.0 °F 100% 29.98 in - Calm Calm - N/A   Clear
2:00 AM 68.0 °F - 68.0 °F 100% 29.98 in - Calm Calm - N/A   Clear
3:00 AM 68.0 °F - 68.0 °F 100% 29.98 in 6.2 mi Calm Calm - N/A   Mostly Cloudy
4:00 AM 68.0 °F - 68.0 °F 100% 29.98 in 6.2 mi Calm Calm - N/A   Mostly Cloudy
5:00 AM 68.0 °F - 68.0 °F 100% 29.98 in 6.2 mi Calm Calm - N/A   Mostly Cloudy
6:00 AM 71 °F - 71 °F 99% 29.99 in 25 mi Calm Calm - -   Partly Cloudy
6:00 AM 71.6 °F - 71.6 °F 100% 29.98 in 6.2 mi Calm Calm - N/A   Scattered Clouds
7:00 AM 71.6 °F - 69.8 °F 94% 30.01 in 6.2 mi Calm Calm - N/A   Partly Cloudy
8:00 AM 77.0 °F - 71.6 °F 83% 30.01 in 6.2 mi Calm Calm - N/A   Scattered Clouds
9:00 AM 80.6 °F 84.6 °F 71.6 °F 74% 30.04 in 6.2 mi North 4.6 mph - N/A   Partly Cloudy
10:00 AM 80.6 °F 85.4 °F 73.4 °F 79% 30.04 in 6.2 mi North 9.2 mph - N/A   Scattered Clouds
12:00 PM 81 °F - 72 °F 69% 30.01 in 25 mi North 9.2 mph - -   Overcast
12:00 PM 80.6 °F 85.4 °F 73.4 °F 79% 30.01 in 6.2 mi North 9.2 mph - N/A   Mostly Cloudy
1:00 PM 78.8 °F - 71.6 °F 78% 29.98 in 6.2 mi North 9.2 mph - N/A   Mostly Cloudy
2:00 PM 80.6 °F 85.4 °F 73.4 °F 79% 29.95 in 6.2 mi North 9.2 mph - N/A   Scattered Clouds
3:00 PM 80.6 °F 85.4 °F 73.4 °F 79% 29.95 in 6.2 mi North 6.9 mph - N/A   Mostly Cloudy
4:00 PM 80.6 °F 85.4 °F 73.4 °F 79% 29.95 in 6.2 mi North 6.9 mph - N/A   Scattered Clouds
5:00 PM 78.8 °F - 71.6 °F 78% 29.95 in 6.2 mi NNE 6.9 mph - N/A   Scattered Clouds
6:00 PM 77 °F - 72 °F 82% 29.97 in 25 mi Calm Calm - -   Scattered Clouds
6:00 PM 77.0 °F - 73.4 °F 89% 29.95 in 6.2 mi Calm Calm - N/A   Scattered Clouds
7:00 PM 73.4 °F - 71.6 °F 94% 29.98 in - Calm Calm - N/A   Clear
8:00 PM 73.4 °F - 71.6 °F 94% 30.01 in - Calm Calm - N/A   Clear
9:00 PM 73.4 °F - 71.6 °F 94% 30.01 in - Calm Calm - N/A   Clear
10:00 PM 71.6 °F - 71.6 °F 100% 30.01 in 6.2 mi Calm Calm - N/A   Scattered Clouds
11:20 PM - - - N/A% - 5.0 mi East 4.6 mph - N/A Rain Heavy Rain